When you browse on this site, cookies collect data to enhance your experience and personalize the content and advertising you see.
Visit our Privacy Policy to learn more. By continuing to use the site, you agree to this use of cookies and data.

Previsão horária em Berat

Hoje, 28 Setembro, Segunda-feira

Tempo Temperatura Precipitação Vento Pressão Humidade
00:00 +19°C° 0 mm 3 m/s 742 mmHg 76%
01:00 +19°C° 0 mm 3 m/s 742 mmHg 75%
02:00 +19°C° 0 mm 4 m/s 741 mmHg 74%
03:00 +19°C° 0 mm 4 m/s 741 mmHg 74%
04:00 +17°C° 0 mm 5 m/s 740 mmHg 73%
05:00 +19°C° 0.1 mm 4 m/s 741 mmHg 73%
06:00 +19°C° 0.1 mm 4 m/s 741 mmHg 72%
07:00 +20°C° 0.1 mm 3 m/s 742 mmHg 72%
08:00 +21°C° 0.6 mm 3 m/s 742 mmHg 71%
09:00 +22°C° 0.6 mm 4 m/s 743 mmHg 69%
10:00 +23°C° 0.6 mm 4 m/s 743 mmHg 68%
11:00 +23°C° 0.6 mm 4 m/s 743 mmHg 64%
12:00 +25°C° 0.6 mm 4 m/s 743 mmHg 60%
13:00 +25°C° 0.6 mm 5 m/s 743 mmHg 57%
14:00 +25°C° 0.4 mm 4 m/s 743 mmHg 57%
15:00 +23°C° 0.4 mm 4 m/s 743 mmHg 58%
16:00 +22°C° 0.4 mm 4 m/s 743 mmHg 59%
17:00 +21°C° 0.2 mm 3 m/s 743 mmHg 65%
18:00 +20°C° 0.2 mm 2 m/s 743 mmHg 71%
19:00 +20°C° 0.2 mm 1 m/s 743 mmHg 77%
20:00 +18°C° 0.2 mm 2 m/s 743 mmHg 78%
21:00 +18°C° 0.2 mm 2 m/s 743 mmHg 78%
22:00 +18°C° 0.2 mm 2 m/s 743 mmHg 79%
23:00 +17°C° 0.7 mm 2 m/s 743 mmHg 81%

Amanhã, 29 Setembro, Terça-feira

Tempo Temperatura Precipitação Vento Pressão Humidade
00:00 +17°C° 0.7 mm 2 m/s 743 mmHg 82%
01:00 +18°C° 0.7 mm 1 m/s 743 mmHg 83%
02:00 +18°C° 1.5 mm 1 m/s 743 mmHg 85%
03:00 +18°C° 1.5 mm 1 m/s 743 mmHg 87%
04:00 +18°C° 1.5 mm 1 m/s 743 mmHg 89%
05:00 +18°C° 0.4 mm 1 m/s 743 mmHg 85%
06:00 +19°C° 0.4 mm 1 m/s 744 mmHg 81%
07:00 +19°C° 0.4 mm 1 m/s 744 mmHg 77%
08:00 +20°C° 0.7 mm 1 m/s 744 mmHg 73%
09:00 +20°C° 0.7 mm 2 m/s 744 mmHg 69%
10:00 +20°C° 0.7 mm 2 m/s 744 mmHg 66%
11:00 +21°C° 0.6 mm 2 m/s 744 mmHg 64%
12:00 +21°C° 0.6 mm 3 m/s 744 mmHg 63%
13:00 +22°C° 0.6 mm 4 m/s 744 mmHg 61%
14:00 +21°C° 0.3 mm 3 m/s 743 mmHg 64%
15:00 +21°C° 0.3 mm 3 m/s 743 mmHg 66%
16:00 +20°C° 0.3 mm 3 m/s 743 mmHg 68%
17:00 +19°C° 0.1 mm 2 m/s 743 mmHg 74%
18:00 +18°C° 0.1 mm 2 m/s 744 mmHg 79%
19:00 +18°C° 0.1 mm 1 m/s 744 mmHg 84%
20:00 +18°C° 0 mm 1 m/s 744 mmHg 84%
21:00 +16°C° 0 mm 1 m/s 744 mmHg 85%
22:00 +15°C° 0 mm 0 m/s 744 mmHg 85%
23:00 +15°C° 0 mm 0 m/s 744 mmHg 85%

Depois de amanhã, 30 Setembro, Quarta-feira

Tempo Temperatura Precipitação Vento Pressão Humidade
00:00 +15°C° 0 mm 1 m/s 744 mmHg 85%
01:00 +15°C° 0 mm 1 m/s 744 mmHg 85%
02:00 +15°C° 0 mm 1 m/s 743 mmHg 85%
03:00 +15°C° 0 mm 1 m/s 743 mmHg 85%
04:00 +14°C° 0 mm 1 m/s 743 mmHg 85%
05:00 +15°C° 0 mm 1 m/s 743 mmHg 83%
06:00 +16°C° 0 mm 1 m/s 743 mmHg 80%
07:00 +16°C° 0 mm 1 m/s 743 mmHg 78%
08:00 +19°C° 0 mm 1 m/s 743 mmHg 71%
09:00 +20°C° 0 mm 1 m/s 743 mmHg 64%
10:00 +20°C° 0 mm 2 m/s 742 mmHg 58%
11:00 +21°C° 0 mm 2 m/s 742 mmHg 54%
12:00 +23°C° 0 mm 2 m/s 742 mmHg 51%
13:00 +22°C° 0 mm 3 m/s 741 mmHg 48%
14:00 +22°C° 0 mm 3 m/s 741 mmHg 50%
15:00 +21°C° 0 mm 3 m/s 741 mmHg 53%
16:00 +21°C° 0 mm 3 m/s 740 mmHg 55%
17:00 +19°C° 0 mm 2 m/s 741 mmHg 63%
18:00 +19°C° 0 mm 1 m/s 741 mmHg 70%
19:00 +16°C° 0 mm 0 m/s 741 mmHg 78%
20:00 +15°C° 0 mm 0 m/s 741 mmHg 79%
21:00 +15°C° 0 mm 0 m/s 741 mmHg 80%
22:00 +15°C° 0 mm 0 m/s 741 mmHg 81%
23:00 +15°C° 0 mm 0 m/s 741 mmHg 82%

1 Outubro, Quinta-feira

Tempo Temperatura Precipitação Vento Pressão Humidade
00:00 +15°C° 0 mm 1 m/s 740 mmHg 82%
01:00 +15°C° 0 mm 1 m/s 740 mmHg 83%
02:00 +15°C° 0 mm 1 m/s 740 mmHg 83%
03:00 +15°C° 0 mm 1 m/s 740 mmHg 84%
04:00 +14°C° 0 mm 1 m/s 740 mmHg 84%
05:00 +15°C° 0 mm 1 m/s 740 mmHg 82%
06:00 +16°C° 0 mm 1 m/s 740 mmHg 80%
07:00 +16°C° 0 mm 1 m/s 740 mmHg 78%
08:00 +19°C° 0 mm 1 m/s 740 mmHg 69%
09:00 +20°C° 0 mm 1 m/s 740 mmHg 61%
10:00 +22°C° 0 mm 1 m/s 740 mmHg 53%
11:00 +21°C° 0 mm 2 m/s 740 mmHg 51%
12:00 +23°C° 0 mm 2 m/s 739 mmHg 48%
13:00 +24°C° 0 mm 3 m/s 739 mmHg 45%
14:00 +22°C° 0 mm 3 m/s 739 mmHg 48%
15:00 +22°C° 0 mm 3 m/s 739 mmHg 51%
16:00 +21°C° 0 mm 3 m/s 739 mmHg 54%
17:00 +20°C° 0 mm 2 m/s 739 mmHg 61%
18:00 +20°C° 0 mm 1 m/s 739 mmHg 68%
19:00 +16°C° 0 mm 0 m/s 739 mmHg 76%
20:00 +18°C° 0 mm 1 m/s 740 mmHg 75%
21:00 +18°C° 0 mm 1 m/s 740 mmHg 74%
22:00 +18°C° 0 mm 1 m/s 740 mmHg 74%
23:00 +16°C° 0 mm 1 m/s 740 mmHg 73%

2 Outubro, Sexta-feira

Tempo Temperatura Precipitação Vento Pressão Humidade
00:00 +16°C° 0 mm 1 m/s 740 mmHg 72%
01:00 +16°C° 0 mm 1 m/s 740 mmHg 72%
02:00 +16°C° 0 mm 2 m/s 739 mmHg 72%
03:00 +16°C° 0 mm 2 m/s 739 mmHg 73%
04:00 +16°C° 0 mm 2 m/s 739 mmHg 73%
05:00 +16°C° 0 mm 2 m/s 739 mmHg 71%
06:00 +17°C° 0 mm 2 m/s 740 mmHg 68%
07:00 +18°C° 0 mm 2 m/s 740 mmHg 66%
08:00 +20°C° 0 mm 2 m/s 740 mmHg 60%
09:00 +23°C° 0 mm 2 m/s 740 mmHg 54%
10:00 +25°C° 0 mm 2 m/s 740 mmHg 48%
11:00 +25°C° 0 mm 2 m/s 740 mmHg 47%
12:00 +26°C° 0 mm 3 m/s 740 mmHg 46%
13:00 +27°C° 0 mm 3 m/s 740 mmHg 44%
14:00 +27°C° 0 mm 3 m/s 740 mmHg 46%
15:00 +26°C° 0 mm 3 m/s 740 mmHg 48%
16:00 +26°C° 0 mm 3 m/s 740 mmHg 49%
17:00 +24°C° 0 mm 3 m/s 740 mmHg 57%
18:00 +22°C° 0 mm 3 m/s 740 mmHg 64%
19:00 +20°C° 0 mm 3 m/s 740 mmHg 72%
20:00 +20°C° 0 mm 3 m/s 740 mmHg 74%
21:00 +20°C° 0 mm 3 m/s 741 mmHg 75%
22:00 +19°C° 0 mm 2 m/s 741 mmHg 77%
23:00 +19°C° 0 mm 3 m/s 741 mmHg 78%

3 Outubro, Sábado

Tempo Temperatura Precipitação Vento Pressão Humidade
00:00 +19°C° 0 mm 3 m/s 741 mmHg 80%
01:00 +19°C° 0 mm 3 m/s 741 mmHg 81%
02:00 +19°C° 0 mm 3 m/s 741 mmHg 82%
03:00 +19°C° 0 mm 2 m/s 741 mmHg 83%
04:00 +18°C° 0 mm 2 m/s 740 mmHg 84%
05:00 +19°C° 0 mm 2 m/s 741 mmHg 82%
06:00 +20°C° 0 mm 3 m/s 741 mmHg 79%
07:00 +20°C° 0 mm 3 m/s 741 mmHg 77%
08:00 +22°C° 0 mm 3 m/s 741 mmHg 70%
09:00 +25°C° 0 mm 4 m/s 741 mmHg 62%
10:00 +27°C° 0 mm 4 m/s 741 mmHg 55%
11:00 +28°C° 0 mm 4 m/s 741 mmHg 51%
12:00 +29°C° 0 mm 4 m/s 741 mmHg 48%
13:00 +29°C° 0 mm 4 m/s 740 mmHg 44%
14:00 +29°C° 0 mm 4 m/s 740 mmHg 45%
15:00 +29°C° 0 mm 4 m/s 740 mmHg 46%
16:00 +28°C° 0 mm 4 m/s 740 mmHg 47%
17:00 +27°C° 0 mm 4 m/s 740 mmHg 53%
18:00 +25°C° 0 mm 4 m/s 740 mmHg 59%
19:00 +22°C° 0 mm 4 m/s 741 mmHg 65%
20:00 +22°C° 0 mm 3 m/s 741 mmHg 64%
21:00 +22°C° 0 mm 3 m/s 741 mmHg 62%
22:00 +22°C° 0 mm 3 m/s 741 mmHg 61%
23:00 +22°C° 0 mm 3 m/s 741 mmHg 58%
Mostrar mais